{"data":{"norad_id":58253,"epoch":"2026-09-19T20:05:42.093600Z","epoch_age_seconds":75451,"freshness":"FRESH","line1":"1 58253U 23172A   26262.83729275 -.00000366  00000+0  00000+0 0  9993","line2":"2 58253   0.0430 252.8212 0002434 279.8925 242.9522  1.00275907 10603","mean_motion":1.00275907,"eccentricity":0.0002434,"inclination_deg":0.043,"raan_deg":252.8212,"arg_perigee_deg":279.8925,"mean_anomaly_deg":242.9522,"bstar":0,"rev_number":1060,"period_min":1436.0378709913,"perigee_km":35775.176840033,"apogee_km":35795.702069051,"semimajor_km":42163.576454542,"source":"CELESTRAK","updated_at":"2026-09-20T09:00:35.335163Z"}}